54,2013-07-17 19:32:13,1374089533,55.18737,-10.10259,3,2,2013-07-17 19:31:00,1374089460,18.6,1,15.8,0,4095,55.2018,-10.0744,40,48
55,2013-07-17 20:06:08,1374091568,55.18217,-10.16442,2,2,2013-07-17 20:00:00,1374091200,16.92,2,15.8,30,4095,55.2018,-10.0744,40,48
56,2013-07-17 20:48:04,1374094084,55.20787,-10.10259,11,2,2013-07-17 20:47:00,1374094020,15.07,1,15.8,0,4095,55.1798,-10.0824,12,48
57,2013-07-17 21:06:09,1374095169,55.18737,-10.10259,2,2,2013-07-17 21:00:00,1374094800,15.08,2,15.8,30,0,55.1824,-10.077,14,44
58,2013-07-17 22:06:12,1374098772,55.21303,-10.04073,10,1,2013-07-17 22:00:00,1374098400,15.07,10,15.8,30,60,55.1824,-10.077,14,44
59,2013-07-17 23:06:11,1374102371,55.16348,-10.02979,3,2,2013-07-17 23:00:00,1374102000,15.06,10,15.8,30,120,55.1824,-10.077,14,44
60,2013-07-18 00:06:10,1374105970,55.16348,-10.02979,2,2,2013-07-18 00:00:00,1374105600,15.05,12,15.8,30,0,55.1848,-10.029,34,44
61,2013-07-18 01:06:12,1374109572,55.21303,-10.04073,9,1,2013-07-18 01:00:00,1374109200,15.05,9,15.8,30,60,55.1848,-10.029,34,44
62,2013-07-18 02:06:10,1374113170,55.1686,-9.96798,2,2,2013-07-18 02:00:00,1374112800,15.04,10,15.8,30,120,55.1848,-10.029,34,44
63,2013-07-18 03:06:15,1374116775,55.15833,-10.09158,2,5,2013-07-18 03:00:00,1374116400,15.04,9,15.8,30,0,55.177,-10.023,34,48
64,2013-07-18 04:06:09,1374120369,55.15833,-10.09158,2,0,2013-07-18 04:00:00,1374120000,15.04,9,15.8,30,60,55.177,-10.023,34,48
65,2013-07-18 05:06:14,1374123974,55.1686,-9.96798,3,1,2013-07-18 05:00:00,1374123600,15.05,9,15.8,30,120,55.177,-10.023,34,48
66,2013-07-18 06:06:12,1374127572,55.19766,-9.97886,2,1,2013-07-18 06:00:00,1374127200,15.06,9,15.8,30,0,55.1866,-10.0402,34,48
67,2013-07-18 07:06:10,1374131170,55.20787,-10.10259,2,2,2013-07-18 07:00:00,1374130800,15.08,8,15.8,30,60,55.1866,-10.0402,34,48
68,2013-07-18 08:06:10,1374134770,55.16348,-10.02979,6,0,2013-07-18 08:00:00,1374134400,15.1,8,15.8,30,120,55.1866,-10.0402,34,48
69,2013-07-18 09:06:09,1374138369,55.16348,-10.02979,3,1,2013-07-18 09:00:00,1374138000,15.13,7,15.8,30,0,55.2024,-10.0308,34,48
70,2013-07-18 10:06:09,1374141969,55.20159,-12.80148,193,1,2013-07-18 10:00:00,1374141600,15.15,7,15.8,30,60,55.2024,-10.0308,34,48
71,2013-07-18 11:06:09,1374145569,55.21816,-9.97886,2,2,2013-07-18 11:00:00,1374145200,15.17,7,15.8,30,120,55.2024,-10.0308,34,48
72,2013-07-18 12:06:11,1374149171,55.24153,-10.75488,97,3,2013-07-18 12:00:00,1374148800,15.22,10,15.8,30,0,55.2108,-9.9948,34,48
73,2013-07-18 13:06:10,1374152770,55.19766,-9.97886,4,2,2013-07-18 13:00:00,1374152400,15.23,10,15.8,30,60,55.2108,-9.9948,34,48
74,2013-07-18 14:06:12,1374156372,55.23173,-10.17551,68,3,2013-07-18 14:00:00,1374156000,15.3,9,15.8,30,120,55.2108,-9.9948,34,48
75,2013-07-18 15:06:13,1374159973,55.21303,-10.04073,2,4,2013-07-18 15:00:00,1374159600,15.4,9,15.8,30,0,55.204,-9.97499999999999,34,48
76,2013-07-18 16:06:09,1374163569,55.21816,-9.97886,80,2,2013-07-18 16:00:00,1374163200,15.5,8,15.8,30,60,55.204,-9.97499999999999,34,48
77,2013-07-18 17:06:24,1374167184,55.24723,-9.98976,7,2,2013-07-18 17:00:00,1374166800,15.4,9,15.8,30,120,55.204,-9.97499999999999,34,48
78,2013-07-18 18:06:14,1374170774,55.0967,-6.47175,232,3,2013-07-18 18:00:00,1374170400,15.5,9,15.8,30,0,55.2084,-9.98999999999998,34,48
79,2013-07-18 19:06:11,1374174371,55.24723,-9.98976,5,8,2013-07-18 19:00:00,1374174000,15.42,7,15.8,30,60,55.2084,-9.98999999999998,34,48
80,2013-07-18 20:06:09,1374177969,55.24723,-9.98976,13,2,2013-07-18 20:00:00,1374177600,15.38,8,15.8,30,120,55.2084,-9.98999999999998,34,48
81,2013-07-18 21:06:13,1374181573,55.19766,-9.97886,3,9,2013-07-18 21:00:00,1374181200,15.38,8,15.8,30,0,55.219,-10,34,48
82,2013-07-18 22:06:14,1374185174,55.21816,-9.97886,6,3,2013-07-18 22:00:00,1374184800,15.37,7,15.8,30,60,55.219,-10,34,48
83,2013-07-18 23:06:12,1374188772,55.22326,-9.91696,2,7,2013-07-18 23:00:00,1374188400,15.41,10,15.8,30,120,55.219,-10,34,48
84,2013-07-19 00:06:08,1374192368,55.21816,-9.97886,4,2,2013-07-19 00:00:00,1374192000,15.38,7,15.8,30,0,55.2332,-9.96539999999999,34,48
85,2013-07-19 01:06:09,1374195969,55.48648,-5.89963,266,1,2013-07-19 01:00:00,1374195600,15.3,8,15.8,30,60,55.2332,-9.96539999999999,34,48
86,2013-07-19 02:06:10,1374199570,55.21816,-9.97886,6,1,2013-07-19 02:00:00,1374199200,15.29,9,15.8,30,120,55.2332,-9.96539999999999,34,48
87,2013-07-19 03:06:08,1374203168,55.58598,-4.76892,341,1,2013-07-19 03:00:00,1374202800,15.28,9,15.8,30,0,55.2326,-9.94539999999998,14,48
88,2013-07-19 04:06:08,1374206768,55.22326,-9.91696,3,2,2013-07-19 04:00:00,1374206400,15.29,9,15.8,30,60,55.2326,-9.94539999999998,14,48
89,2013-07-19 05:06:08,1374210368,55.24723,-9.98976,4,1,2013-07-19 05:00:00,1374210000,15.27,11,15.8,30,120,55.2326,-9.94539999999998,14,48
90,2013-07-19 06:06:09,1374213969,55.24723,-9.98976,4,1,2013-07-19 06:00:00,1374213600,15.24,10,15.8,30,0,55.231,-9.95679999999999,64,48
91,2013-07-19 07:06:11,1374217571,55.21816,-9.97886,2,1,2013-07-19 07:00:00,1374217200,15.24,9,15.8,30,60,55.231,-9.95679999999999,64,48
92,2013-07-19 08:06:12,1374221172,55.2677,-9.98976,11,2,2013-07-19 08:00:00,1374220800,15.24,10,15.8,30,120,55.231,-9.95679999999999,64,48
93,2013-07-19 09:06:09,1374224769,55.22326,-9.91696,2,0,2013-07-19 09:00:00,1374224400,15.27,10,15.8,30,0,55.2382,-9.9718,34,48
94,2013-07-19 10:06:08,1374228368,55.14867,-14.99616,326,4,2013-07-19 10:00:00,1374228000,15.31,12,15.8,30,60,55.2382,-9.9718,34,48
95,2013-07-19 11:06:10,1374231970,55.21816,-9.97886,5,3,2013-07-19 11:00:00,1374231600,15.36,8,15.8,30,120,55.2382,-9.9718,34,48
96,2013-07-19 12:06:15,1374235575,55.38479,-12.79587,191,3,2013-07-19 12:00:00,1374235200,15.42,9,15.8,30,0,55.249,-9.95959999999999,66,44
97,2013-07-19 13:06:09,1374239169,55.24723,-9.98976,1,2,2013-07-19 13:00:00,1374238800,15.51,9,15.8,30,60,55.249,-9.95959999999999,66,44
98,2013-07-19 14:06:12,1374242772,55.24723,-9.98976,3,2,2013-07-19 14:00:00,1374242400,15.56,9,15.8,30,120,55.249,-9.95959999999999,66,44
99,2013-07-19 15:06:13,1374246373,55.22326,-9.91696,2,6,2013-07-19 15:00:00,1374246000,15.62,9,15.8,30,0,55.2458,-9.9486,82,48
100,2013-07-19 16:06:08,1374249968,55.17408,-9.14235,82,2,2013-07-19 16:00:00,1374249600,15.7,9,15.8,30,60,55.2458,-9.9486,82,48
101,2013-07-19 17:06:11,1374253571,55.24723,-9.98976,2,6,2013-07-19 17:00:00,1374253200,15.69,11,15.8,30,120,55.2458,-9.9486,82,48
102,2013-07-19 18:06:08,1374257168,55.23765,-8.96609,95,2,2013-07-19 18:00:00,1374256800,15.72,8,15.8,30,0,55.2474,-9.96939999999998,52,48
103,2013-07-19 19:06:14,1374260774,55.2677,-9.98976,3,2,2013-07-19 19:00:00,1374260400,15.74,10,15.8,30,60,55.2474,-9.96939999999998,52,48
104,2013-07-19 20:06:10,1374264370,55.21816,-9.97886,13,8,2013-07-19 20:00:00,1374264000,15.75,8,15.8,30,120,55.2474,-9.96939999999998,52,48
105,2013-07-19 21:06:08,1374267968,55.27281,-9.92779,2,2,2013-07-19 21:00:00,1374267600,15.77,12,15.8,30,0,55.2646,-9.97899999999998,82,44
106,2013-07-19 22:06:08,1374271568,55.21816,-9.97886,4,1,2013-07-19 22:00:00,1374271200,15.77,10,15.8,30,60,55.2646,-9.97899999999998,82,44
107,2013-07-19 23:06:18,1374275178,55.24723,-9.98976,10,1,2013-07-19 23:00:00,1374274800,15.74,12,15.8,30,120,55.2646,-9.97899999999998,82,44
108,2013-07-20 00:06:12,1374278772,55.25234,-9.92779,4,2,2013-07-20 00:00:00,1374278400,15.75,10,15.8,30,0,55.273,-9.95519999999999,58,44
109,2013-07-20 01:06:12,1374282372,55.4015,-7.60299,165,4,2013-07-20 01:00:00,1374282000,15.72,14,15.8,30,60,55.273,-9.95519999999999,58,44
110,2013-07-20 02:06:08,1374285968,55.25234,-9.92779,3,2,2013-07-20 02:00:00,1374285600,15.7,10,15.8,30,120,55.273,-9.95519999999999,58,44
111,2013-07-20 03:06:08,1374289568,55.3019,-9.93865,7,2,2013-07-20 03:00:00,1374289200,15.69,12,15.8,30,0,55.2726,-9.92839999999998,34,44
112,2013-07-20 04:06:08,1374293168,55.25234,-9.92779,2,2,2013-07-20 04:00:00,1374292800,15.69,12,15.8,30,60,55.2726,-9.92839999999998,34,44
113,2013-07-20 05:06:11,1374296771,55.24723,-9.98976,3,8,2013-07-20 05:00:00,1374296400,15.68,9,15.8,30,120,55.2726,-9.92839999999998,34,44
114,2013-07-20 06:06:08,1374300368,55.24723,-9.98976,2,1,2013-07-20 06:00:00,1374300000,15.66,10,15.8,30,0,55.2662,-9.9358,64,44
115,2013-07-20 07:06:11,1374303971,55.22832,-9.85504,15,1,2013-07-20 07:00:00,1374303600,15.66,11,15.8,30,60,55.2662,-9.9358,64,44
116,2013-07-20 08:06:10,1374307570,55.27281,-9.92779,2,1,2013-07-20 08:00:00,1374307200,15.75,10,15.8,30,120,55.2662,-9.9358,64,44
117,2013-07-20 09:06:09,1374311169,55.29679,-10.00068,2,1,2013-07-20 09:00:00,1374310800,15.77,8,15.8,30,0,55.2778,-9.96519999999998,10,44
118,2013-07-20 10:06:11,1374314771,55.24723,-9.98976,8,1,2013-07-20 10:00:00,1374314400,15.86,9,15.8,30,60,55.2778,-9.96519999999998,10,44
119,2013-07-20 11:06:08,1374318368,55.29679,-10.00068,1,3,2013-07-20 11:00:00,1374318000,16.04,8,15.8,30,120,55.2778,-9.96519999999998,10,44
120,2013-07-20 12:06:14,1374321974,55.3019,-9.93865,11,3,2013-07-20 12:00:00,1374321600,16.54,10,15.8,30,0,55.289,-9.94639999999998,42,44
121,2013-07-20 13:06:09,1374325569,55.3019,-9.93865,6,2,2013-07-20 13:00:00,1374325200,16.41,10,15.8,30,60,55.289,-9.94639999999998,42,44
122,2013-07-20 14:06:09,1374329169,55.4601,-14.37354,10,2,2013-07-20 14:00:00,1374328800,16.48,10,15.8,30,120,55.289,-9.94639999999998,42,44
123,2013-07-20 15:06:08,1374332768,55.30698,-9.8766,3,2,2013-07-20 15:00:00,1374332400,16.73,11,15.8,30,0,55.287,-9.91499999999999,34,48
124,2013-07-20 16:06:08,1374336368,55.3764,-11.37182,115,3,2013-07-20 16:00:00,1374336000,16.93,8,15.8,30,60,55.287,-9.91499999999999,34,48
125,2013-07-20 17:06:09,1374339969,55.3019,-9.93865,2,2,2013-07-20 17:00:00,1374339600,16.93,14,15.8,30,120,55.287,-9.91499999999999,34,48
126,2013-07-20 18:06:11,1374343571,55.22371,-9.15234,200,2,2013-07-20 18:00:00,1374343200,17,12,15.8,30,0,55.2814,-9.91639999999998,34,48
127,2013-07-20 19:06:08,1374347168,55.25234,-9.92779,5,2,2013-07-20 19:00:00,1374346800,17.09,9,15.8,30,60,55.2814,-9.91639999999998,34,48
128,2013-07-20 20:06:08,1374350768,55.24425,-8.45923,117,2,2013-07-20 20:00:00,1374350400,16.97,7,15.8,30,120,55.2814,-9.91639999999998,34,48
129,2013-07-20 21:06:17,1374354377,55.29679,-10.00068,2,4,2013-07-20 21:00:00,1374354000,16.94,9,15.8,30,0,55.2912,-9.9522,18,44
130,2013-07-20 22:06:10,1374357970,55.29679,-10.00068,3,6,2013-07-20 22:00:00,1374357600,16.96,11,15.8,30,60,55.2912,-9.9522,18,44
131,2013-07-20 23:06:09,1374361569,55.27281,-9.92779,2,3,2013-07-20 23:00:00,1374361200,16.95,9,15.8,30,120,55.2912,-9.9522,18,44
132,2013-07-21 00:06:09,1374365169,55.27281,-9.92779,2,1,2013-07-21 00:00:00,1374364800,16.9,10,15.8,30,0,55.3094,-9.92019999999999,34,48
133,2013-07-21 01:06:08,1374368768,55.35654,-9.88742,22,2,2013-07-21 01:00:00,1374368400,16.85,8,15.8,30,60,55.3094,-9.92019999999999,34,48
134,2013-07-21 02:06:08,1374372368,55.30698,-9.8766,2,1,2013-07-21 02:00:00,1374372000,16.66,8,15.8,30,120,55.3094,-9.92019999999999,34,48
135,2013-07-21 03:06:13,1374375973,55.44108,-7.28968,175,2,2013-07-21 03:00:00,1374375600,16.36,9,15.8,30,0,55.3116,-9.8724,10,44
136,2013-07-21 04:06:11,1374379571,55.30698,-9.8766,2,2,2013-07-21 04:00:00,1374379200,16.32,8,15.8,30,60,55.3116,-9.8724,10,44
137,2013-07-21 05:06:08,1374383168,55.31204,-9.81452,3,1,2013-07-21 05:00:00,1374382800,16.33,10,15.8,30,120,55.3116,-9.8724,10,44
138,2013-07-21 06:06:44,1374386804,55.31204,-9.81452,2,0,2013-07-21 06:00:00,1374386400,16.24,9,15.8,30,0,55.2972,-9.8552,34,48
139,2013-07-21 07:06:12,1374390372,55.3019,-9.93865,3,6,2013-07-21 07:00:00,1374390000,16.32,10,15.6,44,60,55.2972,-9.8552,34,48
140,2013-07-21 08:06:12,1374393972,55.3019,-9.93865,3,2,2013-07-21 08:00:00,1374393600,16.33,9,15.6,30,120,55.2972,-9.8552,34,48
141,2013-07-21 09:06:11,1374397571,55.27281,-9.92779,4,1,2013-07-21 09:00:00,1374397200,16.49,9,15.6,30,0,55.2962,-9.89319999999998,10,48
142,2013-07-21 10:06:08,1374401168,55.32743,-9.8766,6,1,2013-07-21 10:00:00,1374400800,16.56,9,15.6,30,60,55.2962,-9.89319999999998,10,48
143,2013-07-21 11:06:09,1374404769,55.30698,-9.8766,2,2,2013-07-21 11:00:00,1374404400,16.69,9,15.6,30,120,55.2962,-9.89319999999998,10,48
144,2013-07-21 12:06:11,1374408371,55.35145,-9.94954,4,2,2013-07-21 12:00:00,1374408000,16.77,8,15.6,30,0,55.3152,-9.916,34,44
145,2013-07-21 13:06:23,1374411983,55.3019,-9.93865,5,2,2013-07-21 13:00:00,1374411600,16.84,9,15.6,30,60,55.3152,-9.916,34,44
146,2013-07-21 14:06:08,1374415568,55.58227,-14.37509,291,2,2013-07-21 14:00:00,1374415200,17.01,12,15.6,30,120,55.3152,-9.916,34,44
147,2013-07-21 15:06:13,1374419173,55.35654,-9.88742,2,6,2013-07-21 15:00:00,1374418800,16.97,11,15.6,30,0,55.3356,-9.8768,64,48
148,2013-07-21 16:06:12,1374422772,55.53943,-14.22077,295,2,2013-07-21 16:00:00,1374422400,16.78,11,15.6,30,60,55.3356,-9.8768,64,48
149,2013-07-21 17:06:12,1374426372,55.3616,-9.82528,9,2,2013-07-21 17:00:00,1374426000,16.72,12,15.6,30,120,55.3356,-9.8768,64,48
150,2013-07-21 18:06:11,1374429971,55.35146,-10.65452,85,4,2013-07-21 18:00:00,1374429600,16.68,13,15.6,30,0,55.3274,-9.8434,52,44
151,2013-07-21 19:06:11,1374433571,55.3616,-9.82528,5,6,2013-07-21 19:00:00,1374433200,16.77,10,15.6,30,60,55.3274,-9.8434,52,44
152,2013-07-21 20:06:12,1374437172,55.36951,-10.7902,109,2,2013-07-21 20:00:00,1374436800,16.84,9,15.6,30,120,55.3274,-9.8434,52,44
153,2013-07-21 21:06:12,1374440772,55.35654,-9.88742,4,5,2013-07-21 21:00:00,1374440400,16.87,9,15.6,30,0,55.3216,-9.8784,64,48
154,2013-07-21 22:06:08,1374444368,55.3019,-9.93865,14,1,2013-07-21 22:00:00,1374444000,16.97,8,15.6,30,60,55.3216,-9.8784,64,48
155,2013-07-21 23:06:08,1374447968,55.35654,-9.88742,3,2,2013-07-21 23:00:00,1374447600,16.86,12,15.6,30,120,55.3216,-9.8784,64,48
156,2013-07-22 00:06:08,1374451568,55.30698,-9.8766,3,1,2013-07-22 00:00:00,1374451200,16.71,8,15.6,30,0,55.3462,-9.91199999999998,34,48
157,2013-07-22 01:06:08,1374455168,55.36508,-10.14685,70,3,2013-07-22 01:00:00,1374454800,16.64,8,15.6,30,60,55.3462,-9.91199999999998,34,48
158,2013-07-22 02:06:07,1374458767,55.35145,-9.94954,2,1,2013-07-22 02:00:00,1374458400,16.63,10,15.6,30,120,55.3462,-9.91199999999998,34,48
159,2013-07-22 03:06:11,1374462371,55.3375,-9.75242,70,7,2013-07-22 03:00:00,1374462000,16.6,8,15.6,30,0,55.3722,-9.86799999999999,12,44
160,2013-07-22 04:06:11,1374465971,55.3616,-9.82528,3,1,2013-07-22 04:00:00,1374465600,16.61,9,15.6,30,60,55.3722,-9.86799999999999,12,44
161,2013-07-22 05:06:10,1374469570,55.35654,-9.88742,7,0,2013-07-22 05:00:00,1374469200,16.55,8,15.6,30,120,55.3722,-9.86799999999999,12,44
162,2013-07-22 06:06:10,1374473170,55.3616,-9.82528,4,2,2013-07-22 06:00:00,1374472800,16.46,9,15.6,30,0,55.3628,-9.81780000000001,118,44
163,2013-07-22 07:06:08,1374476768,55.32743,-9.8766,5,1,2013-07-22 07:00:00,1374476400,16.36,10,15.6,30,60,55.3628,-9.81780000000001,118,44
164,2013-07-22 08:06:08,1374480368,55.3616,-9.82528,7,1,2013-07-22 08:00:00,1374480000,16.55,10,15.6,30,120,55.3628,-9.81780000000001,118,44
165,2013-07-22 09:06:12,1374483972,55.71536,-4.78481,337,1,2013-07-22 09:00:00,1374483600,16.68,8,15.6,30,0,55.3444,-9.84059999999999,36,48
166,2013-07-22 10:06:08,1374487568,55.33248,-9.81452,1,1,2013-07-22 10:00:00,1374487200,16.73,8,15.6,30,60,55.3444,-9.84059999999999,36,48
167,2013-07-22 11:06:11,1374491171,55.30698,-9.8766,5,4,2013-07-22 11:00:00,1374490800,16.86,8,15.6,30,120,55.3444,-9.84059999999999,36,48
168,2013-07-22 12:06:08,1374494768,55.3616,-9.82528,2,2,2013-07-22 12:00:00,1374494400,16.98,8,15.6,30,0,55.3534,-9.89400000000001,34,48
169,2013-07-22 13:06:09,1374498369,55.35145,-9.94954,1,2,2013-07-22 13:00:00,1374498000,16.91,8,15.6,30,60,55.3534,-9.89400000000001,34,48
170,2013-07-22 14:06:08,1374501968,55.38057,-9.96044,3,3,2013-07-22 14:00:00,1374501600,16.8,10,15.6,30,120,55.3534,-9.89400000000001,34,48
171,2013-07-22 15:06:09,1374505569,55.3616,-9.82528,2,2,2013-07-22 15:00:00,1374505200,16.9,9,15.6,30,0,55.3818,-9.88079999999999,34,48
172,2013-07-22 16:06:10,1374509170,55.36663,-9.76311,4,3,2013-07-22 16:00:00,1374508800,16.9,10,15.6,30,60,55.3818,-9.88079999999999,34,48
173,2013-07-22 17:06:08,1374512768,55.35654,-9.88742,2,3,2013-07-22 17:00:00,1374512400,16.85,9,15.6,30,120,55.3818,-9.88079999999999,34,48
174,2013-07-22 18:06:11,1374516371,55.53655,-13.17518,220,3,2013-07-22 18:00:00,1374516000,16.92,9,15.6,30,0,55.3854,-9.8312,34,48
175,2013-07-22 19:06:08,1374519968,55.41114,-9.83605,3,2,2013-07-22 19:00:00,1374519600,16.77,11,15.6,30,60,55.3854,-9.8312,34,48
176,2013-07-22 20:06:08,1374523568,55.3784,-10.34436,138,2,2013-07-22 20:00:00,1374523200,16.7,10,15.6,30,120,55.3854,-9.8312,34,48
177,2013-07-22 21:06:11,1374527171,55.35654,-9.88742,3,2,2013-07-22 21:00:00,1374526800,16.57,10,15.6,30,0,55.372,-9.8424,34,48
178,2013-07-22 22:06:08,1374530768,55.3616,-9.82528,8,2,2013-07-22 22:00:00,1374530400,16.68,10,15.6,30,60,55.372,-9.8424,34,48
179,2013-07-22 23:06:08,1374534368,55.35654,-9.88742,6,1,2013-07-22 23:00:00,1374534000,16.62,8,15.6,30,120,55.372,-9.8424,34,48
180,2013-07-23 00:06:12,1374537972,55.35654,-9.88742,4,3,2013-07-23 00:00:00,1374537600,16.47,7,15.6,30,0,55.3802,-9.88200000000001,52,48
181,2013-07-23 01:06:15,1374541575,55.28548,-11.7914,143,3,2013-07-23 01:00:00,1374541200,16.56,8,15.6,30,60,55.3802,-9.88200000000001,52,48
182,2013-07-23 02:06:08,1374545168,55.35654,-9.88742,3,1,2013-07-23 02:00:00,1374544800,16.42,7,15.6,30,120,55.3802,-9.88200000000001,52,48
183,2013-07-23 03:06:13,1374548773,55.47453,-8.89042,99,1,2013-07-23 03:00:00,1374548400,16.4,7,15.6,30,0,55.4036,-9.86919999999998,10,44
184,2013-07-23 04:06:08,1374552368,55.41114,-9.83605,4,1,2013-07-23 04:00:00,1374552000,16.37,7,15.6,30,60,55.4036,-9.86919999999998,10,44
185,2013-07-23 05:06:19,1374555979,55.44294,-8.6308,99,1,2013-07-23 05:00:00,1374555600,16.4,6,15.6,30,120,55.4036,-9.86919999999998,10,44
186,2013-07-23 06:06:10,1374559570,55.41114,-9.83605,2,1,2013-07-23 06:00:00,1374559200,16.5,8,15.6,30,0,55.4092,-9.81299999999999,34,48
187,2013-07-23 07:06:08,1374563168,55.49701,-7.68249,170,1,2013-07-23 07:00:00,1374562800,16.59,7,15.6,30,60,55.4092,-9.81299999999999,34,48
188,2013-07-23 08:06:08,1374566768,55.41618,-9.77382,1,1,2013-07-23 08:00:00,1374566400,16.66,8,15.6,30,120,55.4092,-9.81299999999999,34,48
189,2013-07-23 09:06:08,1374570368,55.40607,-9.89826,3,1,2013-07-23 09:00:00,1374570000,16.71,7,15.6,30,0,55.3984,-9.80699999999999,34,48
190,2013-07-23 10:06:08,1374573968,55.3616,-9.82528,5,1,2013-07-23 10:00:00,1374573600,16.77,7,15.6,30,60,55.3984,-9.80699999999999,34,48
191,2013-07-23 11:06:08,1374577568,55.40607,-9.89826,2,5,2013-07-23 11:00:00,1374577200,16.77,10,15.6,30,120,55.3984,-9.80699999999999,34,48
192,2013-07-23 12:06:13,1374581173,55.40607,-9.89826,2,3,2013-07-23 12:00:00,1374580800,16.73,8,15.6,30,0,55.3894,-9.84520000000001,34,48
193,2013-07-23 13:06:08,1374584768,55.41114,-9.83605,8,2,2013-07-23 13:00:00,1374584400,16.82,8,15.6,30,60,55.3894,-9.84520000000001,34,48
194,2013-07-23 14:06:09,1374588369,55.3616,-9.82528,3,2,2013-07-23 14:00:00,1374588000,16.88,7,15.6,30,120,55.3894,-9.84520000000001,34,48
195,2013-07-23 15:06:09,1374591969,55.41618,-9.77382,4,7,2013-07-23 15:00:00,1374591600,16.65,6,15.6,30,0,55.4066,-9.84959999999998,34,48
196,2013-07-23 16:06:08,1374595568,55.41114,-9.83605,3,3,2013-07-23 16:00:00,1374595200,16.74,8,15.6,30,60,55.4066,-9.84959999999998,34,48
197,2013-07-23 17:06:08,1374599168,55.44029,-9.84685,2,4,2013-07-23 17:00:00,1374598800,16.94,8,15.6,30,120,55.4066,-9.84959999999998,34,48
198,2013-07-23 18:06:08,1374602768,55.65701,-13.28057,236,2,2013-07-23 18:00:00,1374602400,16.99,8,15.6,30,0,55.4242,-9.81180000000001,34,48
199,2013-07-23 19:06:07,1374606367,55.41618,-9.77382,2,6,2013-07-23 19:00:00,1374606000,16.84,8,15.6,30,60,55.4242,-9.81180000000001,34,48
200,2013-07-23 20:06:08,1374609968,55.5875,-12.60453,193,3,2013-07-23 20:00:00,1374609600,16.81,7,15.6,30,120,55.4242,-9.81180000000001,34,48
201,2013-07-23 21:06:09,1374613569,55.41114,-9.83605,1,3,2013-07-23 21:00:00,1374613200,16.75,10,15.6,30,0,55.4176,-9.79259999999999,16,44
202,2013-07-23 22:06:08,1374617168,55.50593,-12.31589,175,4,2013-07-23 22:00:00,1374616800,16.75,8,15.6,30,60,55.4176,-9.79259999999999,16,44
203,2013-07-23 23:06:08,1374620768,55.38704,-9.76311,2,2,2013-07-23 23:00:00,1374620400,16.63,12,15.6,30,120,55.4176,-9.79259999999999,16,44
204,2013-07-24 00:06:08,1374624368,55.3616,-9.82528,2,2,2013-07-24 00:00:00,1374624000,16.52,11,15.6,30,0,55.4046,-9.816,64,48
205,2013-07-24 01:06:08,1374627968,55.38567,-9.89826,3,4,2013-07-24 01:00:00,1374627600,16.49,9,15.6,30,60,55.4046,-9.816,64,48
206,2013-07-24 02:06:08,1374631568,55.41114,-9.83605,2,1,2013-07-24 02:00:00,1374631200,16.42,11,15.6,30,120,55.4046,-9.816,64,48
207,2013-07-24 03:06:14,1374635174,55.36467,-11.49552,123,2,2013-07-24 03:00:00,1374634800,16.42,7,15.6,30,0,55.418,-9.85239999999999,12,48
208,2013-07-24 04:06:11,1374638771,55.40607,-9.89826,2,1,2013-07-24 04:00:00,1374638400,16.38,8,15.6,30,60,55.418,-9.85239999999999,12,48
209,2013-07-24 05:06:18,1374642378,55.44534,-9.78456,3,0,2013-07-24 05:00:00,1374642000,16.31,10,15.6,30,120,55.418,-9.85239999999999,12,48
210,2013-07-24 06:06:13,1374645973,55.44534,-9.78456,2,2,2013-07-24 06:00:00,1374645600,16.25,10,15.6,30,0,55.4368,-9.82679999999999,34,48
211,2013-07-24 07:06:09,1374649569,55.51443,-8.32718,115,1,2013-07-24 07:00:00,1374649200,16.38,9,15.6,30,60,55.4368,-9.82679999999999,34,48
212,2013-07-24 08:06:08,1374653168,55.44029,-9.84685,3,1,2013-07-24 08:00:00,1374652800,16.36,11,15.6,30,120,55.4368,-9.82679999999999,34,48
213,2013-07-24 09:06:14,1374656774,55.41114,-9.83605,12,1,2013-07-24 09:00:00,1374656400,16.25,11,15.6,30,0,55.432,-9.79999999999998,58,48
214,2013-07-24 10:06:11,1374660371,55.44534,-9.78456,4,1,2013-07-24 10:00:00,1374660000,16.22,16,15.6,30,60,55.432,-9.79999999999998,58,48
215,2013-07-24 11:06:13,1374663973,55.41618,-9.77382,3,2,2013-07-24 11:00:00,1374663600,16.23,11,15.6,30,120,55.432,-9.79999999999998,58,48
216,2013-07-24 12:06:14,1374667574,55.44029,-9.84685,4,4,2013-07-24 12:00:00,1374667200,16.28,12,15.6,30,0,55.4128,-9.82839999999999,64,44
217,2013-07-24 13:06:08,1374671168,55.41114,-9.83605,6,2,2013-07-24 13:00:00,1374670800,16.27,14,15.6,30,60,55.4128,-9.82839999999999,64,44
218,2013-07-24 14:06:09,1374674769,55.41114,-9.83605,2,2,2013-07-24 14:00:00,1374674400,16.19,12,15.6,30,120,55.4128,-9.82839999999999,64,44
219,2013-07-24 15:06:08,1374678368,55.43522,-9.90912,2,3,2013-07-24 15:00:00,1374678000,16.26,12,15.6,30,0,55.4212,-9.87119999999999,82,44
220,2013-07-24 16:06:09,1374681969,55.40607,-9.89826,13,3,2013-07-24 16:00:00,1374681600,16.13,11,15.6,30,60,55.4212,-9.87119999999999,82,44
221,2013-07-24 17:06:08,1374685568,55.49488,-9.79531,13,3,2013-07-24 17:00:00,1374685200,16.29,12,15.6,30,120,55.4212,-9.87119999999999,82,44
222,2013-07-24 18:06:08,1374689168,55.44534,-9.78456,3,3,2013-07-24 18:00:00,1374688800,16.32,12,15.6,30,0,55.4492,-9.8466,34,44
223,2013-07-24 19:06:08,1374692768,55.44029,-9.84685,2,3,2013-07-24 19:00:00,1374692400,16.3,9,15.6,30,60,55.4492,-9.8466,34,44
224,2013-07-24 20:06:08,1374696368,55.73509,-14.96428,336,2,2013-07-24 20:00:00,1374696000,16.27,8,15.6,30,120,55.4492,-9.8466,34,44
225,2013-07-24 21:06:09,1374699969,55.49488,-9.79531,5,2,2013-07-24 21:00:00,1374699600,16.24,12,15.6,30,0,55.4558,-9.7978,58,48
226,2013-07-24 22:06:10,1374703570,55.44029,-9.84685,2,6,2013-07-24 22:00:00,1374703200,16.17,8,15.6,30,60,55.4558,-9.7978,58,48
227,2013-07-24 23:06:10,1374707170,55.46571,-9.78456,3,2,2013-07-24 23:00:00,1374706800,16.1,9,15.6,30,120,55.4558,-9.7978,58,48
228,2013-07-25 00:06:09,1374710769,55.41618,-9.77382,3,7,2013-07-25 00:00:00,1374710400,16.05,10,15.6,30,0,55.4348,-9.804,64,40
229,2013-07-25 01:06:08,1374714368,55.32112,-14.34223,296,1,2013-07-25 01:00:00,1374714000,16.04,9,15.6,30,60,55.4348,-9.804,64,40
230,2013-07-25 02:06:09,1374717969,55.41114,-9.83605,5,1,2013-07-25 02:00:00,1374717600,16.03,13,15.6,30,120,55.4348,-9.804,64,40